N0OQA Weather Reports


Display with metric or nautical units.
time (UTC)temp
F
wind
direction
speed
MPH
gust
MPH
rain 1hr
in
rain 24hr
in
rain mn
in
humidity
%
barometer
mb
20260902214857 86 41 1.0 2.0 0.00 0.00 0.00 46 1013.6
20260902213856 85 352 2.0 5.0 0.00 0.00 0.00 46 1013.7
20260902213356 86 8 6.0 9.0 0.00 0.00 0.00 45 1013.8
20260902205853 86 148 3.0 7.0 0.00 0.00 0.00 44 1013.8
20260902205353 87 23 6.0 7.0 0.00 0.00 0.00 43 1013.8
20260902173834 83 23 2.0 5.0 0.00 0.00 0.00 52 1015.4
20260902172333 82 201 4.0 8.0 0.00 0.00 0.00 52 1015.6
20260902165331 80 312 2.0 3.0 0.00 0.00 0.00 55 1015.5
20260902163330 78 11 4.0 5.0 0.00 0.00 0.00 64 1015.6
20260902155827 74 314 4.0 8.0 0.00 0.00 0.00 72 1015.7
20260902154326 74 37 6.0 8.0 0.00 0.00 0.00 72 1015.5
20260902152825 73 0 0.0 0.0 0.00 0.00 0.00 73 1015.6
20260902150822 72 239 0.0 2.0 0.00 0.00 0.00 77 1015.6
20260902150320 72 228 3.0 4.0 0.00 0.00 0.00 77 1015.6
20260902145820 72 245 2.0 5.0 0.00 0.00 0.00 78 1015.5
20260902145319 71 0 0.0 0.0 0.00 0.00 0.00 79 1015.4
20260902144819 71 0 0.0 0.0 0.00 0.00 0.00 80 1015.3
20260902125309 65 0 0.0 0.0 0.00 0.00 0.00 93 1015.9
20260902123308 66 0 0.0 0.0 0.00 0.00 0.00 92 1015.9
20260902121807 66 0 0.0 0.0 0.00 0.00 0.00 91 1015.7
20260902121305 66 0 0.0 0.0 0.00 0.00 0.00 91 1015.6
20260902115804 66 0 0.0 0.0 0.00 0.00 0.00 91 1015.7
20260902115307 66 0 0.0 0.0 0.00 0.00 0.00 91 1015.7
20260902113803 66 0 0.0 0.0 0.00 0.00 0.00 90 1015.9
20260902111301 66 0 0.0 0.0 0.00 0.00 0.00 89 1015.7
20260902095254 67 0 0.0 0.0 0.00 0.00 0.00 83 1015.1
20260902090250 69 0 0.0 0.0 0.00 0.00 0.00 76 1014.7
20260902085749 69 0 0.0 0.0 0.00 0.00 0.00 76 1014.7
20260902084749 70 0 0.0 0.0 0.00 0.00 0.00 75 1015.1
20260902083248 69 162 2.0 3.0 0.00 0.00 0.00 75 1015.1
20260902081246 69 155 2.0 4.0 0.00 0.00 0.00 76 1015.6
20260902075243 69 204 3.0 6.0 0.00 0.00 0.00 77 1015.0
20260902074743 69 200 3.0 6.0 0.00 0.00 0.00 78 1015.0
20260902073242 69 0 0.0 0.0 0.00 0.00 0.00 78 1015.3
20260902072741 69 177 4.0 5.0 0.00 0.00 0.00 77 1015.4
20260902063739 68 169 3.0 3.0 0.00 0.00 0.00 81 1016.0
20260902062738 68 0 0.0 0.0 0.00 0.00 0.00 80 1015.5
20260902062235 68 0 0.0 0.0 0.00 0.00 0.00 79 1015.4
20260902061734 68 0 0.0 0.0 0.00 0.00 0.00 79 1015.4
20260902053231 69 177 2.0 3.0 0.00 0.00 0.00 77 1016.0
20260902051730 70 0 0.0 0.0 0.00 0.00 0.00 74 1016.3
20260902051228 70 0 0.0 0.0 0.00 0.00 0.00 74 1016.3
20260902050727 70 0 0.0 0.0 0.00 0.00 0.00 75 1016.0
20260902044224 70 0 0.0 0.0 0.00 0.00 0.00 74 1015.9
20260902043724 70 0 0.0 0.0 0.00 0.00 0.00 74 1015.8
20260902042725 70 73 1.0 3.0 0.00 0.00 0.00 74 1015.5
20260902042223 70 1 4.0 5.0 0.00 0.00 0.00 75 1015.5
20260902040720 69 14 3.0 4.0 0.00 0.00 0.00 78 1015.5
20260902035720 69 0 0.0 0.0 0.00 0.00 0.00 81 1015.7
20260902034719 69 0 0.0 0.0 0.00 0.00 0.00 80 1015.8
20260902024715 70 0 0.0 0.0 0.00 0.00 0.00 77 1015.7
20260902024214 70 0 0.0 0.0 0.00 0.00 0.00 76 1015.8
20260902020212 72 0 0.0 0.0 0.00 0.00 0.00 73 1015.6
20260902001654 77 0 0.0 0.0 0.00 0.00 0.00 59 1015.8
20260901225650 81 0 0.0 0.0 0.00 0.00 0.00 51 1015.9